Time,TemperatureF,DewpointF,PressureIn,WindDirection,WindDirectionDegrees,WindSpeedMPH,WindSpeedGustMPH,Humidity,HourlyPrecipIn,Conditions,Clouds,dailyrainin,SoftwareType,DateUTC
2013-11-22 00:09:00,50.0,40.6,30.18,South,180,0.0,-999.0,70,-99.99,,,0.00,Acu-Link.com,2013-11-22 05:09:00,
2013-11-22 00:24:00,50.0,40.6,30.17,SSW,202,0.0,-999.0,70,-99.99,,,0.00,Acu-Link.com,2013-11-22 05:24:00,
2013-11-22 00:40:00,50.0,40.2,30.17,West,270,0.0,-999.0,69,-99.99,,,0.00,Acu-Link.com,2013-11-22 05:40:00,
2013-11-22 00:55:00,50.0,40.6,30.17,NNW,337,1.6,-999.0,70,-99.99,,,0.00,Acu-Link.com,2013-11-22 05:55:00,
2013-11-22 01:10:00,50.0,40.6,30.15,WSW,247,0.0,-999.0,70,-99.99,,,0.00,Acu-Link.com,2013-11-22 06:10:00,
2013-11-22 01:25:00,50.0,40.2,30.15,NNW,337,2.0,-999.0,69,-99.99,,,0.00,Acu-Link.com,2013-11-22 06:25:00,
2013-11-22 01:40:00,51.8,42.3,30.16,NE,45,0.0,-999.0,70,-99.99,,,0.00,Acu-Link.com,2013-11-22 06:40:00,
2013-11-22 01:55:00,51.8,42.7,30.16,SW,225,0.0,-999.0,71,-99.99,,,0.00,Acu-Link.com,2013-11-22 06:55:00,
2013-11-22 02:11:00,50.0,41.0,30.14,WSW,247,0.0,-999.0,71,-99.99,,,0.00,Acu-Link.com,2013-11-22 07:11:00,
2013-11-22 02:26:00,50.0,41.0,30.15,East,90,0.0,-999.0,71,-99.99,,,0.00,Acu-Link.com,2013-11-22 07:26:00,
2013-11-22 02:41:00,50.0,41.0,30.15,South,180,0.0,-999.0,71,-99.99,,,0.00,Acu-Link.com,2013-11-22 07:41:00,
2013-11-22 02:56:00,50.0,41.0,30.15,East,90,0.0,-999.0,71,-99.99,,,0.00,Acu-Link.com,2013-11-22 07:56:00,
2013-11-22 03:12:00,50.0,40.6,30.15,SSE,157,2.0,-999.0,70,-99.99,,,0.00,Acu-Link.com,2013-11-22 08:12:00,
2013-11-22 03:27:00,50.0,40.6,30.14,WSW,247,3.1,-999.0,70,-99.99,,,0.00,Acu-Link.com,2013-11-22 08:27:00,
2013-11-22 03:42:00,50.0,40.6,30.14,NE,45,1.6,-999.0,70,-99.99,,,0.00,Acu-Link.com,2013-11-22 08:42:00,
2013-11-22 03:57:00,50.0,40.2,30.12,South,180,0.0,-999.0,69,-99.99,,,0.00,Acu-Link.com,2013-11-22 08:57:00,
2013-11-22 04:12:00,50.0,40.2,30.11,SSE,157,0.0,-999.0,69,-99.99,,,0.00,Acu-Link.com,2013-11-22 09:12:00,
2013-11-22 04:27:00,50.0,40.2,30.11,ESE,112,0.0,-999.0,69,-99.99,,,0.00,Acu-Link.com,2013-11-22 09:27:00,
2013-11-22 04:43:00,50.0,40.6,30.11,ESE,112,0.0,-999.0,70,-99.99,,,0.00,Acu-Link.com,2013-11-22 09:43:00,
2013-11-22 04:58:00,50.0,40.6,30.12,West,270,0.0,-999.0,70,-99.99,,,0.00,Acu-Link.com,2013-11-22 09:58:00,
2013-11-22 05:13:00,50.0,40.6,30.12,WSW,247,0.0,-999.0,70,-99.99,,,0.00,Acu-Link.com,2013-11-22 10:13:00,
2013-11-22 05:28:00,50.0,41.0,30.12,SW,225,0.0,-999.0,71,-99.99,,,0.00,Acu-Link.com,2013-11-22 10:28:00,
2013-11-22 05:43:00,50.0,41.3,30.12,NNW,337,1.6,-999.0,72,-99.99,,,0.00,Acu-Link.com,2013-11-22 10:43:00,
2013-11-22 05:59:00,50.0,42.4,30.13,SW,225,0.0,-999.0,75,-99.99,,,0.00,Acu-Link.com,2013-11-22 10:59:00,
2013-11-22 06:14:00,50.0,43.1,30.12,West,270,0.0,-999.0,77,-99.99,,,0.00,Acu-Link.com,2013-11-22 11:14:00,
2013-11-22 06:29:00,50.0,42.7,30.11,NNE,22,0.0,-999.0,76,-99.99,,,0.00,Acu-Link.com,2013-11-22 11:29:00,
2013-11-22 06:44:00,50.0,43.1,30.11,East,90,0.0,-999.0,77,-99.99,,,0.00,Acu-Link.com,2013-11-22 11:44:00,
2013-11-22 07:00:00,50.0,42.7,30.11,SW,225,0.0,-999.0,76,-99.99,,,0.00,Acu-Link.com,2013-11-22 12:00:00,
2013-11-22 07:15:00,50.0,42.4,30.11,East,90,0.0,-999.0,75,-99.99,,,0.00,Acu-Link.com,2013-11-22 12:15:00,
2013-11-22 07:30:00,50.0,42.4,30.11,South,180,0.0,-999.0,75,-99.99,,,0.00,Acu-Link.com,2013-11-22 12:30:00,
2013-11-22 07:45:00,51.8,44.1,30.10,SSE,157,0.0,-999.0,75,-99.99,,,0.00,Acu-Link.com,2013-11-22 12:45:00,
2013-11-22 08:00:00,51.8,43.8,30.10,West,270,0.0,-999.0,74,-99.99,,,0.00,Acu-Link.com,2013-11-22 13:00:00,
2013-11-22 08:15:00,51.8,43.8,30.10,North,0,0.0,-999.0,74,-99.99,,,0.00,Acu-Link.com,2013-11-22 13:15:00,
2013-11-22 08:31:00,51.8,43.4,30.10,SSE,157,0.0,-999.0,73,-99.99,,,0.00,Acu-Link.com,2013-11-22 13:31:00,
2013-11-22 08:46:00,53.6,44.8,30.10,East,90,0.0,-999.0,72,-99.99,,,0.00,Acu-Link.com,2013-11-22 13:46:00,
2013-11-22 09:01:00,53.6,44.4,30.10,East,90,0.0,-999.0,71,-99.99,,,0.00,Acu-Link.com,2013-11-22 14:01:00,
2013-11-22 09:16:00,53.6,44.1,30.10,West,270,0.0,-999.0,70,-99.99,,,0.00,Acu-Link.com,2013-11-22 14:16:00,
2013-11-22 09:31:00,55.4,45.0,30.10,South,180,0.0,-999.0,68,-99.99,,,0.00,Acu-Link.com,2013-11-22 14:31:00,
2013-11-22 09:46:00,55.4,45.0,30.11,NNE,22,0.0,-999.0,68,-99.99,,,0.00,Acu-Link.com,2013-11-22 14:46:00,
2013-11-22 10:01:00,55.4,45.4,30.11,ESE,112,0.0,-999.0,69,-99.99,,,0.00,Acu-Link.com,2013-11-22 15:01:00,
2013-11-22 10:16:00,55.4,45.8,30.11,South,180,3.6,-999.0,70,-99.99,,,0.00,Acu-Link.com,2013-11-22 15:16:00,
2013-11-22 10:31:00,55.4,46.9,30.11,South,180,2.0,-999.0,73,-99.99,,,0.00,Acu-Link.com,2013-11-22 15:31:00,
2013-11-22 10:47:00,55.4,48.0,30.10,South,180,3.6,-999.0,76,-99.99,,,0.00,Acu-Link.com,2013-11-22 15:47:00,
2013-11-22 11:02:00,55.4,47.3,30.09,South,180,3.6,-999.0,74,-99.99,,,0.00,Acu-Link.com,2013-11-22 16:02:00,
2013-11-22 11:17:00,55.4,47.3,30.09,South,180,3.6,-999.0,74,-99.99,,,0.00,Acu-Link.com,2013-11-22 16:17:00,
2013-11-22 11:32:00,57.2,49.3,30.08,South,180,1.6,-999.0,75,-99.99,,,0.00,Acu-Link.com,2013-11-22 16:32:00,
2013-11-22 11:47:00,59.0,50.0,30.07,South,180,1.6,-999.0,72,-99.99,,,0.00,Acu-Link.com,2013-11-22 16:47:00,
2013-11-22 12:02:00,59.0,50.0,30.06,East,90,1.6,-999.0,72,-99.99,,,0.00,Acu-Link.com,2013-11-22 17:02:00,
2013-11-22 12:17:00,59.0,51.1,30.05,SE,135,4.7,-999.0,75,-99.99,,,0.00,Acu-Link.com,2013-11-22 17:17:00,
2013-11-22 12:32:00,59.0,51.4,30.04,SE,135,3.6,-999.0,76,-99.99,,,0.00,Acu-Link.com,2013-11-22 17:32:00,
2013-11-22 12:47:00,59.0,51.4,30.03,SSE,157,3.6,-999.0,76,-99.99,,,0.00,Acu-Link.com,2013-11-22 17:47:00,
2013-11-22 13:03:00,59.0,51.4,30.03,South,180,5.1,-999.0,76,-99.99,,,0.00,Acu-Link.com,2013-11-22 18:03:00,
2013-11-22 13:18:00,60.8,52.8,30.02,South,180,3.6,-999.0,75,-99.99,,,0.00,Acu-Link.com,2013-11-22 18:18:00,
2013-11-22 13:33:00,60.8,52.5,30.01,SSE,157,3.6,-999.0,74,-99.99,,,0.00,Acu-Link.com,2013-11-22 18:33:00,
2013-11-22 13:48:00,62.6,54.2,30.00,ENE,67,2.0,-999.0,74,-99.99,,,0.00,Acu-Link.com,2013-11-22 18:48:00,
2013-11-22 14:04:00,62.6,54.2,30.00,SSW,202,4.0,-999.0,74,-99.99,,,0.00,Acu-Link.com,2013-11-22 19:04:00,
2013-11-22 14:19:00,64.4,54.0,29.99,West,270,2.7,-999.0,69,-99.99,,,0.00,Acu-Link.com,2013-11-22 19:19:00,
2013-11-22 14:34:00,64.4,55.2,29.98,South,180,4.0,-999.0,72,-99.99,,,0.00,Acu-Link.com,2013-11-22 19:34:00,
2013-11-22 14:49:00,64.4,55.6,29.98,SSW,202,2.7,-999.0,73,-99.99,,,0.00,Acu-Link.com,2013-11-22 19:49:00,
2013-11-22 15:04:00,64.4,54.8,29.97,SE,135,3.1,-999.0,71,-99.99,,,0.00,Acu-Link.com,2013-11-22 20:04:00,
2013-11-22 15:19:00,64.4,55.6,29.97,ESE,112,2.7,-999.0,73,-99.99,,,0.00,Acu-Link.com,2013-11-22 20:19:00,
2013-11-22 15:35:00,64.4,55.9,29.96,SSW,202,0.0,-999.0,74,-99.99,,,0.00,Acu-Link.com,2013-11-22 20:35:00,
2013-11-22 15:50:00,64.4,55.6,29.96,West,270,1.6,-999.0,73,-99.99,,,0.00,Acu-Link.com,2013-11-22 20:50:00,
2013-11-22 16:05:00,64.4,55.9,29.96,WNW,292,0.0,-999.0,74,-99.99,,,0.00,Acu-Link.com,2013-11-22 21:05:00,
2013-11-22 16:20:00,64.4,56.3,29.95,ESE,112,0.0,-999.0,75,-99.99,,,0.00,Acu-Link.com,2013-11-22 21:20:00,
2013-11-22 16:35:00,62.6,54.9,29.94,South,180,0.0,-999.0,76,-99.99,,,0.00,Acu-Link.com,2013-11-22 21:35:00,
2013-11-22 16:50:00,62.6,54.9,29.94,NNE,22,0.0,-999.0,76,-99.99,,,0.00,Acu-Link.com,2013-11-22 21:50:00,
2013-11-22 17:05:00,62.6,55.3,29.94,NW,315,0.0,-999.0,77,-99.99,,,0.00,Acu-Link.com,2013-11-22 22:05:00,
2013-11-22 17:21:00,62.6,55.6,29.94,North,0,0.0,-999.0,78,-99.99,,,0.00,Acu-Link.com,2013-11-22 22:21:00,
2013-11-22 17:36:00,62.6,56.0,29.94,South,180,1.6,-999.0,79,-99.99,,,0.00,Acu-Link.com,2013-11-22 22:36:00,
2013-11-22 17:51:00,62.6,56.3,29.94,NE,45,0.0,-999.0,80,-99.99,,,0.00,Acu-Link.com,2013-11-22 22:51:00,
2013-11-22 18:06:00,60.8,54.6,29.94,NNW,337,0.0,-999.0,80,-99.99,,,0.00,Acu-Link.com,2013-11-22 23:06:00,
2013-11-22 18:21:00,60.8,54.9,29.93,NW,315,0.0,-999.0,81,-99.99,,,0.00,Acu-Link.com,2013-11-22 23:21:00,
2013-11-22 18:37:00,60.8,55.3,29.93,West,270,0.0,-999.0,82,-99.99,,,0.00,Acu-Link.com,2013-11-22 23:37:00,
2013-11-22 18:52:00,60.8,55.3,29.93,NW,315,0.0,-999.0,82,-99.99,,,0.00,Acu-Link.com,2013-11-22 23:52:00,
2013-11-22 19:07:00,60.8,55.3,29.92,NNW,337,0.0,-999.0,82,-99.99,,,0.00,Acu-Link.com,2013-11-23 00:07:00,
2013-11-22 19:22:00,60.8,55.3,29.92,WNW,292,0.0,-999.0,82,-99.99,,,0.00,Acu-Link.com,2013-11-23 00:22:00,
2013-11-22 19:37:00,60.8,55.6,29.92,SE,135,2.0,-999.0,83,-99.99,,,0.00,Acu-Link.com,2013-11-23 00:37:00,
2013-11-22 19:52:00,60.8,56.3,29.92,SSE,157,0.0,-999.0,85,-99.99,,,0.00,Acu-Link.com,2013-11-23 00:52:00,
2013-11-22 20:08:00,60.8,56.3,29.91,SE,135,0.0,-999.0,85,-99.99,,,0.00,Acu-Link.com,2013-11-23 01:08:00,
2013-11-22 20:23:00,60.8,56.6,29.91,WNW,292,2.0,-999.0,86,-99.99,,,0.00,Acu-Link.com,2013-11-23 01:23:00,
2013-11-22 20:38:00,60.8,56.9,29.91,West,270,0.0,-999.0,87,-99.99,,,0.00,Acu-Link.com,2013-11-23 01:38:00,
2013-11-22 20:53:00,60.8,56.9,29.90,WNW,292,0.0,-999.0,87,-99.99,,,0.00,Acu-Link.com,2013-11-23 01:53:00,
2013-11-22 21:09:00,60.8,57.2,29.91,SSW,202,0.0,-999.0,88,-99.99,,,0.00,Acu-Link.com,2013-11-23 02:09:00,
2013-11-22 21:24:00,59.0,55.4,29.91,WSW,247,0.0,-999.0,88,-99.99,,,0.00,Acu-Link.com,2013-11-23 02:24:00,
2013-11-22 21:39:00,59.0,55.4,29.90,North,0,0.0,-999.0,88,-99.99,,,0.00,Acu-Link.com,2013-11-23 02:39:00,
2013-11-22 21:54:00,59.0,55.4,29.90,NW,315,0.0,-999.0,88,-99.99,,,0.00,Acu-Link.com,2013-11-23 02:54:00,
2013-11-22 22:09:00,59.0,55.4,29.90,ESE,112,0.0,-999.0,88,-99.99,,,0.00,Acu-Link.com,2013-11-23 03:09:00,
2013-11-22 22:25:00,59.0,55.4,29.90,NNW,337,0.0,-999.0,88,-99.99,,,0.00,Acu-Link.com,2013-11-23 03:25:00,
2013-11-22 22:40:00,59.0,55.8,29.90,NW,315,0.0,-999.0,89,-99.99,,,0.00,Acu-Link.com,2013-11-23 03:40:00,
2013-11-22 22:55:00,59.0,55.8,29.90,West,270,0.0,-999.0,89,-99.99,,,0.00,Acu-Link.com,2013-11-23 03:55:00,
2013-11-22 23:10:00,59.0,55.8,29.89,West,270,0.0,-999.0,89,-99.99,,,0.00,Acu-Link.com,2013-11-23 04:10:00,
2013-11-22 23:25:00,59.0,56.1,29.90,West,270,0.0,-999.0,90,-99.99,,,0.00,Acu-Link.com,2013-11-23 04:25:00,
2013-11-22 23:40:00,59.0,56.1,29.90,West,270,0.0,-999.0,90,-99.99,,,0.00,Acu-Link.com,2013-11-23 04:40:00,
2013-11-22 23:55:00,59.0,56.1,29.89,West,270,0.0,-999.0,90,-99.99,,,0.00,Acu-Link.com,2013-11-23 04:55:00,